This is the latest recevied weather packets stored in our database for station/object K4MUW-4. If no packets are shown the sender has not sent any weather packets the latest 10 day(s).
| Time | Temp. | Humidity | Pressure | Rain* | Wind** | Luminosity | Snow |
|---|---|---|---|---|---|---|---|
| 1777930388 | 25.56° C | 28% | 1011 hPa | 0 mm | 2.24 m/s, 184° | - | - |
| 1777930083 | 25.56° C | 28% | 1011 hPa | 0 mm | 1.79 m/s, 167° | - | - |
| 1777929782 | 25.56° C | 29% | 1011 hPa | 0 mm | 1.79 m/s, 198° | - | - |
| 1777929482 | 25.56° C | 28% | 1011 hPa | 0 mm | 1.34 m/s, 200° | - | - |
| 1777929181 | 25° C | 29% | 1011 hPa | 0 mm | 1.34 m/s, 250° | - | - |
| 1777928881 | 25° C | 30% | 1011 hPa | 0 mm | 2.68 m/s, 185° | - | - |
| 1777928581 | 25° C | 30% | 1011 hPa | 0 mm | 2.24 m/s, 165° | - | - |
| 1777928280 | 25° C | 30% | 1011 hPa | 0 mm | 1.34 m/s, 295° | - | - |
| 1777927980 | 25° C | 30% | 1011 hPa | 0 mm | 1.34 m/s, 199° | - | - |
| 1777927680 | 25° C | 30% | 1011 hPa | 0 mm | 1.79 m/s, 141° | - | - |
| 1777927379 | 24.44° C | 30% | 1011 hPa | 0 mm | 0 m/s | - | - |
| 1777927079 | 24.44° C | 30% | 1011 hPa | 0 mm | 0 m/s | - | - |
| 1777926778 | 24.44° C | 30% | 1011 hPa | 0 mm | 0 m/s | - | - |
| 1777926655 | 25° C | 30% | 1011 hPa | 0 mm | 0 m/s | - | - |
| 1777926478 | 25° C | 30% | 1011 hPa | 0 mm | 0 m/s | - | - |
| 1777926173 | 25° C | 30% | 1011 hPa | 0 mm | 1.79 m/s, 178° | - | - |
| 1777925873 | 25° C | 30% | 1011 hPa | 0 mm | 1.79 m/s, 157° | - | - |
| 1777925568 | 24.44° C | 30% | 1011 hPa | 0 mm | 1.79 m/s, 197° | - | - |
| 1777925268 | 25° C | 30% | 1011 hPa | 0 mm | 0 m/s | - | - |
| 1777924967 | 25° C | 30% | 1011 hPa | 0 mm | 0 m/s | - | - |
| 1777924662 | 25° C | 30% | 1011 hPa | 0 mm | 1.79 m/s, 214° | - | - |
| 1777924357 | 24.44° C | 30% | 1011 hPa | 0 mm | 1.79 m/s, 193° | - | - |
| 1777924052 | 24.44° C | 30% | 1012 hPa | 0 mm | 1.79 m/s, 221° | - | - |
| 1777923752 | 24.44° C | 29% | 1012 hPa | 0 mm | 1.34 m/s, 105° | - | - |
| 1777923452 | 24.44° C | 30% | 1012 hPa | 0 mm | 1.79 m/s, 218° | - | - |
* Rain latest hour (hover to see other rain measurements)
** Current wind speed in m/s (hover to see current wind gust speed)